Weather Roundup
Issued by NWS Corpus Christi, TX

Home | Current Version | Previous Version | Text Only | Print | Product List | Glossary On
Versions: 1 2 3 4 5 6 7 8 9 10 11 12 13 14 15 16 17 18 19 20 21 22 23 24 25 26 27 28 29 30 31 32 33 34 35 36 37 38 39 40 41 42 43 44 45 46 47 48 49 50
000
ASUS44 KCRP 020710
HRRCRP

SOUTH TEXAS REGIONAL WEATHER ROUNDUP
NATIONAL WEATHER SERVICE CORPUS CHRISTI TX
200 AM CDT SAT AUG 02 2014


TXZ229>244-020800-
...CORPUS CHRISTI AREA OBSERVATIONS...

CITY           SKY/WX    TMP DP  RH WIND       PRES   REMARKS
CORPUS CHRISTI MOCLDY    81  76  84 S7        29.96S
NAS CORPUS CHR MOCLDY    82  79  90 S6        29.96S HX  92
ROCKPORT       LGT RAIN  82  78  88 CALM      29.95S HX  91
KINGSVILLE NAS CLOUDY    82  78  88 SE5       29.95F HX  91
ALICE          CLOUDY    79  77  94 N3        29.96R
FALFURRIAS     CLOUDY    74  73  95 S3        29.95F
$$

...VICTORIA AREA OBSERVATIONS...

CITY           SKY/WX    TMP DP  RH WIND       PRES   REMARKS
VICTORIA       CLOUDY    79  70  74 NE13      29.99R
BEEVILLE       FAIR      78  75  91 N5        29.98R
PLEASANTON     CLOUDY    79  64  61 NE5       30.01S
SAN ANTONIO    PTCLDY    77  66  68 NE7       30.03F
$$

...LAREDO AREA OBSERVATIONS...

CITY           SKY/WX    TMP DP  RH WIND       PRES   REMARKS
LAREDO         MOCLDY    77  75  93 S6        30.00F
COTULLA        MOCLDY    80  71  74 NE7       29.98S
DEL RIO        CLOUDY    84  68  58 E3        29.98F
MCALLEN        MOCLDY    83  76  79 S6        29.96S HX  91
HEBBRONVILLE   CLOUDY    77  75  92 S3        29.98F
$$

...OTHER TEXAS OBSERVATIONS...

CITY           SKY/WX    TMP DP  RH WIND       PRES   REMARKS
BROWNSVILLE    PTCLDY    79  76  90 SE6       29.95S
HOUSTON        PTCLDY    73  69  87 N5        29.98F
COL. STATION   CLEAR     72  68  87 N7        30.01F
AUSTIN         CLEAR     73  67  81 NE7       30.04S
WACO           CLOUDY    74  66  76 N3        30.04S
FORT WORTH     PTCLDY    70  65  84 N3        30.05F
WICHITA FALLS  CLEAR     67  65  93 S5        30.08S
LUBBOCK        CLOUDY    70  50  49 SE5       30.18F
EL PASO        CLOUDY    71  61  70 E6        30.15F
$$

...MARINE OBSERVATIONS...

STATION/POSITION TIME  SKY/WX   TEMP    WIND        PRES    VSBY  WAVE   SWELL
                                AIR SEA DIR/SP/G                  HT/PER HT/PER
                 (UTC)          (F)     (DEG/KT/KT) (MB)    (MI)  (FT/S) (FT/S)
PORT ARANSAS     0700            81 83  190/  5/  5 1014.9F
BUOY 90 E PORT A 0700            84 84  200/  6/  8 1014.5F         1/ 5   2/ 5
BUOY 45 SE BAFFI 0700            83 84  170/ 10/ 10 1014.0S         2/ 5   2/ 5
BUOY 200 E PT IS 0700            85 86  120/  8/ 10 1014.4S         1/ 4
BUOY 15 E GALVES NOT AVBL
$$



USA.gov is the U.S. government's official web portal to all federal, state and local government web resources and services.